Location: Morisset
(33.1080°S, 151.4871°E)
Time: 09:07:40
(UTC+00:00)

Cosmos 2026 Rocket - Pass Details

Date: 29 October 2020
Orbit: 938 x 1002 km, 82.9° (Epoch: 27 November)

Event Time Altitude Azimuth Distance (km) Brightness Sun altitude
Rises 17:50:35 0° 185° (S) 3,683 7.3 -13.7°
Reaches altitude 10° 17:53:06 10° 183° (S) 2,739 6.7 -13.2°
Maximum altitude 17:59:24 80° 96° (E) 1,006 4.2 -12.0°
Drops below altitude 10° 18:05:43 10° 8° (N) 2,748 6.2 -10.8°
Sets 18:08:14 0° 7° (N) 3,696 6.9 -10.3°
